[keps] orb09225.amsat
Ray Hoad
r.hoad at att.net
Thu Aug 13 17:57:51 PDT 2009
SB KEPS @ AMSAT $ORB09225.O
Orbital Elements 09225.OSCAR
HR AMSAT ORBITAL ELEMENTS FOR OSCAR SATELLITES
FROM WA5QGD FORT WORTH,TX August 13, 2009
Send Subscribe/unsubscribe to KEPS at
http://www.amsat.org/mailman/listinfo/keps
BID: ORB09225.O
TO ALL RADIO AMATEURS BT
Satellite: AO-07
Catalog number: 07530
Epoch time: 09225.62917936
Element set: 554
Inclination: 101.4242 deg
RA of node: 248.1937 deg
Eccentricity: 0.0011823
Arg of perigee: 155.0655 deg
Mean anomaly: 205.0989 deg
Mean motion: 12.53576252 rev/day
Decay rate: -2.7e-07 rev/day^2
Epoch rev: 58991
Checksum: 311
Satellite: FO-29
Catalog number: 24278
Epoch time: 09225.16762400
Element set: 109
Inclination: 098.5446 deg
RA of node: 091.5261 deg
Eccentricity: 0.0350433
Arg of perigee: 202.6010 deg
Mean anomaly: 155.9360 deg
Mean motion: 13.52944580 rev/day
Decay rate: -5.8e-07 rev/day^2
Epoch rev: 64145
Checksum: 292
Satellite: SO-33
Catalog number: 25509
Epoch time: 09224.95215586
Element set: 517
Inclination: 031.4293 deg
RA of node: 091.5092 deg
Eccentricity: 0.0354081
Arg of perigee: 114.8536 deg
Mean anomaly: 248.9345 deg
Mean motion: 14.28260293 rev/day
Decay rate: 2.8e-07 rev/day^2
Epoch rev: 56395
Checksum: 316
Satellite: RS-22
Catalog number: 27939
Epoch time: 09225.70468079
Element set: 864
Inclination: 097.9347 deg
RA of node: 098.4560 deg
Eccentricity: 0.0012950
Arg of perigee: 315.0063 deg
Mean anomaly: 045.0086 deg
Mean motion: 14.63334025 rev/day
Decay rate: -3.7e-07 rev/day^2
Epoch rev: 31398
Checksum: 317
Satellite: VO-52
Catalog number: 28650
Epoch time: 09224.03664404
Element set: 0296
Inclination: 097.7381 deg
RA of node: 283.7616 deg
Eccentricity: 0.0026567
Arg of perigee: 204.8459 deg
Mean anomaly: 155.1449 deg
Mean motion: 14.81608976 rev/day
Decay rate: -6.0e-07 rev/day^2
Epoch rev: 23091
Checksum: 327
/EX
SB KEPS @ AMSAT $ORB09225.D
Orbital Elements 09225.MICROS
HR AMSAT ORBITAL ELEMENTS FOR THE MICROSATS
FROM WA5QGD FORT WORTH,TX August 13, 2009
Send Subscribe/unsubscribe to KEPS at
http://www.amsat.org/mailman/listinfo/keps
BID: ORB09225.D
TO ALL RADIO AMATEURS BT
Satellite: AO-16
Catalog number: 20439
Epoch time: 09225.01734438
Element set: 675
Inclination: 098.2828 deg
RA of node: 190.8479 deg
Eccentricity: 0.0011308
Arg of perigee: 007.2810 deg
Mean anomaly: 352.8540 deg
Mean motion: 14.31830441 rev/day
Decay rate: -5.0e-08 rev/day^2
Epoch rev: 2128
Checksum: 284
Satellite: LO-19
Catalog number: 20442
Epoch time: 09225.41436847
Element set: 590
Inclination: 098.2472 deg
RA of node: 198.2693 deg
Eccentricity: 0.0011843
Arg of perigee: 002.3963 deg
Mean anomaly: 357.7268 deg
Mean motion: 14.32065264 rev/day
Decay rate: -5.8e-07 rev/day^2
Epoch rev: 2150
Checksum: 305
Satellite: AO-27
Catalog number: 22825
Epoch time: 09224.99046322
Element set: 313
Inclination: 098.4407 deg
RA of node: 176.6364 deg
Eccentricity: 0.0009411
Arg of perigee: 096.6879 deg
Mean anomaly: 263.5386 deg
Mean motion: 14.29270535 rev/day
Decay rate: -7.4e-07 rev/day^2
Epoch rev: 82802
Checksum: 326
Satellite: IO-26
Catalog number: 22826
Epoch time: 09225.04065347
Element set: 42
Inclination: 098.4338 deg
RA of node: 177.4097 deg
Eccentricity: 0.0009956
Arg of perigee: 091.6899 deg
Mean anomaly: 268.5426 deg
Mean motion: 14.29523311 rev/day
Decay rate: -2.0e-08 rev/day^2
Epoch rev: 82813
Checksum: 323
Satellite: GO-32
Catalog number: 25397
Epoch time: 09225.79407241
Element set: 964
Inclination: 098.3261 deg
RA of node: 245.0466 deg
Eccentricity: 0.0002242
Arg of perigee: 085.7800 deg
Mean anomaly: 274.3623 deg
Mean motion: 14.23162310 rev/day
Decay rate: 7.0e-08 rev/day^2
Epoch rev: 57632
Checksum: 288
Satellite: NO-44
Catalog number: 26931
Epoch time: 09225.65355506
Element set: 239
Inclination: 067.0519 deg
RA of node: 276.2960 deg
Eccentricity: 0.0006421
Arg of perigee: 277.1666 deg
Mean anomaly: 082.8731 deg
Mean motion: 14.29564208 rev/day
Decay rate: 1.25e-06 rev/day^2
Epoch rev: 41079
Checksum: 313
Satellite: SO-50
Catalog number: 27607
Epoch time: 09225.34564195
Element set: 957
Inclination: 064.5571 deg
RA of node: 211.4901 deg
Eccentricity: 0.0061113
Arg of perigee: 191.8340 deg
Mean anomaly: 168.1314 deg
Mean motion: 14.71452130 rev/day
Decay rate: -5.1e-07 rev/day^2
Epoch rev: 35708
Checksum: 280
Satellite: CO-55
Catalog number: 27844
Epoch time: 09225.53361855
Element set: 643
Inclination: 098.7128 deg
RA of node: 233.8898 deg
Eccentricity: 0.0010044
Arg of perigee: 344.1188 deg
Mean anomaly: 015.9670 deg
Mean motion: 14.20650854 rev/day
Decay rate: 3.2e-07 rev/day^2
Epoch rev: 31740
Checksum: 310
Satellite: CO-57
Catalog number: 27848
Epoch time: 09225.23741578
Element set: 592
Inclination: 098.7168 deg
RA of node: 232.6613 deg
Eccentricity: 0.0009752
Arg of perigee: 349.4055 deg
Mean anomaly: 010.6910 deg
Mean motion: 14.20451162 rev/day
Decay rate: 1.4e-07 rev/day^2
Epoch rev: 31732
Checksum: 302
Satellite: AO-51
Catalog number: 28375
Epoch time: 09224.56922180
Element set: 459
Inclination: 098.0528 deg
RA of node: 230.8871 deg
Eccentricity: 0.0084129
Arg of perigee: 314.8913 deg
Mean anomaly: 044.5467 deg
Mean motion: 14.40649057 rev/day
Decay rate: -3.0e-08 rev/day^2
Epoch rev: 26907
Checksum: 323
Satellite: CO-56
Catalog number: 28941
Epoch time: 09225.67858791
Element set: 343
Inclination: 098.1379 deg
RA of node: 051.2793 deg
Eccentricity: 0.0066424
Arg of perigee: 272.5063 deg
Mean anomaly: 086.8608 deg
Mean motion: 15.91772240 rev/day
Decay rate: 5.8409e-04 rev/day^2
Epoch rev: 19637
Checksum: 359
Satellite: GENESAT1
Catalog number: 29655
Epoch time: 09225.31345856
Element set: 781
Inclination: 040.0223 deg
RA of node: 185.0784 deg
Eccentricity: 0.0003508
Arg of perigee: 234.0321 deg
Mean anomaly: 126.0171 deg
Mean motion: 15.66696514 rev/day
Decay rate: 8.673e-05 rev/day^2
Epoch rev: 15143
Checksum: 285
Satellite: CP3
Catalog number: 31129
Epoch time: 09225.08749649
Element set: 125
Inclination: 097.9853 deg
RA of node: 275.4290 deg
Eccentricity: 0.0103452
Arg of perigee: 108.6480 deg
Mean anomaly: 252.6006 deg
Mean motion: 14.52154529 rev/day
Decay rate: 6.3e-07 rev/day^2
Epoch rev: 12314
Checksum: 293
Satellite: CO-65
Catalog number: 32785
Epoch time: 09225.19658146
Element set: 443
Inclination: 097.9398 deg
RA of node: 288.6812 deg
Eccentricity: 0.0014419
Arg of perigee: 202.5580 deg
Mean anomaly: 157.4999 deg
Mean motion: 14.81506767 rev/day
Decay rate: -1.0e-07 rev/day^2
Epoch rev: 6988
Checksum: 359
Satellite: KKS-1
Catalog number: 33493
Epoch time: 09225.80969824
Element set: 656
Inclination: 098.0609 deg
RA of node: 338.2843 deg
Eccentricity: 0.0021269
Arg of perigee: 057.6471 deg
Mean anomaly: 302.6797 deg
Mean motion: 14.80712561 rev/day
Decay rate: 2.01e-06 rev/day^2
Epoch rev: 2999
Checksum: 328
Satellite: SOHLA-1
Catalog number: 33496
Epoch time: 09225.78998660
Element set: 620
Inclination: 098.0415 deg
RA of node: 334.2108 deg
Eccentricity: 0.0007847
Arg of perigee: 097.2063 deg
Mean anomaly: 263.0036 deg
Mean motion: 14.69442738 rev/day
Decay rate: 1.8e-07 rev/day^2
Epoch rev: 2973
Checksum: 315
/EX
SB KEPS @ AMSAT $ORB09225.W
Orbital Elements 09225.WEATHER
HR AMSAT ORBITAL ELEMENTS FOR WEATHER SATELLITES
FROM WA5QGD FORT WORTH,TX August 13, 2009
Send Subscribe/unsubscribe to KEPS at
http://www.amsat.org/mailman/listinfo/keps
BID: ORB09225.W
TO ALL RADIO AMATEURS BT
Satellite: NOAA-10
Catalog number: 16969
Epoch time: 09225.49710377
Element set: 722
Inclination: 098.6893 deg
RA of node: 251.8274 deg
Eccentricity: 0.0012923
Arg of perigee: 033.1016 deg
Mean anomaly: 327.0981 deg
Mean motion: 14.27392125 rev/day
Decay rate: -2.3e-07 rev/day^2
Epoch rev: 19168
Checksum: 310
Satellite: NOAA-11
Catalog number: 19531
Epoch time: 09225.27514875
Element set: 739
Inclination: 098.7828 deg
RA of node: 314.3468 deg
Eccentricity: 0.0011007
Arg of perigee: 309.0685 deg
Mean anomaly: 050.9487 deg
Mean motion: 14.14900813 rev/day
Decay rate: -4.7e-07 rev/day^2
Epoch rev: 7759
Checksum: 323
Satellite: NOAA-12
Catalog number: 21263
Epoch time: 09225.51972061
Element set: 225
Inclination: 098.7734 deg
RA of node: 233.6086 deg
Eccentricity: 0.0012493
Arg of perigee: 345.3068 deg
Mean anomaly: 014.7747 deg
Mean motion: 14.25588883 rev/day
Decay rate: 2.1e-07 rev/day^2
Epoch rev: 94856
Checksum: 317
Satellite: MET-3/5
Catalog number: 21655
Epoch time: 09224.97414743
Element set: 0716
Inclination: 082.5569 deg
RA of node: 166.3852 deg
Eccentricity: 0.0014803
Arg of perigee: 042.4504 deg
Mean anomaly: 317.7759 deg
Mean motion: 13.17019873 rev/day
Decay rate: 5.1e-07 rev/day^2
Epoch rev: 86510
Checksum: 314
Satellite: MET-2/21
Catalog number: 22782
Epoch time: 09225.81344168
Element set: 536
Inclination: 082.5494 deg
RA of node: 136.3075 deg
Eccentricity: 0.0022004
Arg of perigee: 181.2479 deg
Mean anomaly: 178.8615 deg
Mean motion: 13.83639584 rev/day
Decay rate: 5.0e-07 rev/day^2
Epoch rev: 80557
Checksum: 317
Satellite: OKEAN-4
Catalog number: 23317
Epoch time: 09225.12517064
Element set: 988
Inclination: 082.5396 deg
RA of node: 281.3558 deg
Eccentricity: 0.0022228
Arg of perigee: 172.4681 deg
Mean anomaly: 187.6889 deg
Mean motion: 14.82713285 rev/day
Decay rate: 2.9e-07 rev/day^2
Epoch rev: 80080
Checksum: 325
Satellite: NOAA-14
Catalog number: 23455
Epoch time: 09225.42564196
Element set: 721
Inclination: 098.9051 deg
RA of node: 302.8981 deg
Eccentricity: 0.0009755
Arg of perigee: 034.0765 deg
Mean anomaly: 326.1053 deg
Mean motion: 14.13767238 rev/day
Decay rate: -3.1e-07 rev/day^2
Epoch rev: 75401
Checksum: 298
Satellite: NOAA-15
Catalog number: 25338
Epoch time: 09225.49821483
Element set: 40
Inclination: 098.5879 deg
RA of node: 213.4599 deg
Eccentricity: 0.0009580
Arg of perigee: 249.7465 deg
Mean anomaly: 110.2683 deg
Mean motion: 14.24779708 rev/day
Decay rate: 1.89e-06 rev/day^2
Epoch rev: 58493
Checksum: 353
